Tracking 19570 objects as of 22-Feb-2019
HD Live streaming from Space Station
objects crossing your sky now

ATLAS AGENA R/B

Track ATLAS AGENA R/B now!


NORAD ID: 6318
Int'l Code: 1972-101B
Perigee: 30,121.3 km
Apogee: 40,340.0 km
Inclination: 14.3 °
Period: 1,407.4 minutes
Semi major axis: 41601 km
RCS: Unknown
Launch date: December 20, 1972
Source: United States (US)
Launch site: AIR FORCE EASTERN TEST RANGE (AFETR)

Note: This is a ROCKET BODY
aabbcc
Your satellite tracking list
Your tracking list is empty




NASA's NSSDC Master Catalog

Two Line Element Set (TLE):
1 06318U 72101B   19024.82218660 0.00000000  00000-0  00000-0 0    01
2 06318  14.3232 284.8761 1228159  71.6501 301.3210  1.02314454    03
Source of the keplerian elements: McCants